Temp
-16 -16 -16 -15 -15 -14 -14 -13 -12 -12 -12 -12 -12 -12 -12 -12 -12 -12 -12 -12 -12 -12 -12 -12 -12 -13 -13 -14 -15 -15 -15 -16 -16 -17 -17 -17 -17 -18 -18 -18 -18 -19 -19 -19
-15 -15 -15 -15 -14 -14 -14 -14 -13 -13 -12 -12 -12 -12 -12 -12 -12 -12 -12 -12 -12 -12 -12 -12 -13 -13 -14 -15 -15 -16 -16 -17 -17 -18 -18 -18 -18 -18 -19 -19 -19 -19 -19 -19
-14 -14 -14 -14 -14 -13 -13 -13 -12 -12 -12 -12 -12 -12 -12 -12 -12 -12 -12 -12 -12 -12 -12 -13 -13 -13 -14 -15 -16 -17 -18 -18 -19 -19 -19 -19 -19 -20 -20 -20 -21 -20 -20 -21
-14 -14 -14 -13 -13 -13 -13 -13 -13 -13 -12 -12 -12 -12 -12 -12 -12 -12 -12 -12 -12 -12 -12 -13 -13 -14 -14 -15 -17 -18 -19 -19 -20 -20 -20 -20 -21 -21 -21 -21 -21 -21 -22 -22
-14 -14 -14 -13 -13 -13 -13 -13 -12 -12 -12 -12 -12 -12 -12 -12 -12 -12 -12 -12 -12 -12 -13 -13 -13 -14 -15 -17 -18 -19 -19 -20 -20 -20 -21 -21 -22 -22 -21 -22 -22 -23 -23 -23
-13 -13 -13 -12 -13 -13 -12 -12 -12 -12 -12 -12 -12 -12 -12 -13 -13 -13 -13 -12 -12 -13 -13 -13 -13 -14 -16 -18 -19 -20 -20 -20 -21 -21 -22 -22 -22 -23 -22 -23 -23 -23 -23 -24
-13 -13 -12 -13 -13 -13 -13 -13 -13 -13 -13 -13 -13 -13 -13 -13 -13 -13 -13 -13 -13 -13 -13 -13 -14 -16 -18 -19 -20 -21 -21 -21 -21 -22 -22 -23 -23 -23 -23 -24 -24 -24 -24 -24
-13 -13 -12 -13 -13 -13 -13 -13 -13 -13 -13 -13 -13 -13 -13 -13 -13 -13 -13 -13 -13 -13 -14 -15 -17 -18 -19 -20 -21 -22 -23 -23 -23 -23 -23 -24 -24 -24 -24 -24 -24 -24 -24 -24
-13 -13 -13 -13 -13 -13 -13 -13 -13 -13 -13 -13 -13 -13 -13 -13 -13 -13 -13 -13 -14 -15 -16 -18 -19 -20 -21 -22 -23 -23 -23 -24 -24 -24 -24 -24 -24 -24 -24 -24 -25 -25 -25 -25
-13 -13 -13 -13 -13 -13 -13 -13 -13 -13 -13 -13 -13 -13 -14 -14 -14 -14 -14 -15 -16 -17 -19 -20 -21 -21 -22 -22 -23 -23 -24 -24 -24 -24 -24 -24 -25 -25 -25 -25 -25 -25 -25 -26
-14 -13 -13 -14 -14 -14 -14 -14 -14 -14 -14 -14 -14 -14 -14 -15 -15 -15 -16 -18 -19 -20 -20 -21 -22 -23 -23 -23 -23 -23 -24 -24 -24 -24 -25 -25 -25 -25 -25 -25 -25 -25 -26 -26
-13 -14 -14 -14 -14 -14 -14 -14 -15 -15 -15 -15 -15 -15 -16 -16 -17 -18 -19 -20 -20 -21 -22 -23 -23 -23 -23 -23 -24 -24 -24 -24 -24 -25 -25 -25 -25 -25 -26 -26 -26 -26 -27 -27
-14 -15 -14 -15 -15 -15 -15 -15 -15 -15 -15 -16 -16 -17 -18 -19 -19 -20 -21 -21 -22 -23 -23 -23 -23 -24 -24 -24 -24 -24 -24 -24 -25 -25 -25 -25 -25 -25 -25 -26 -27 -28 -29 -29
-16 -16 -16 -16 -15 -15 -15 -16 -16 -16 -16 -17 -18 -19 -20 -20 -20 -21 -21 -22 -23 -23 -23 -24 -24 -24 -24 -24 -24 -24 -25 -25 -25 -25 -25 -25 -25 -26 -26 -27 -28 -29 -30 -30
-16 -16 -16 -16 -16 -16 -16 -17 -17 -17 -18 -19 -20 -20 -21 -21 -22 -22 -22 -23 -23 -23 -23 -24 -24 -24 -24 -24 -24 -25 -25 -25 -25 -25 -25 -26 -26 -27 -28 -29 -30 -30 -30 -30
-17 -16 -16 -16 -17 -17 -17 -18 -18 -19 -20 -20 -21 -21 -22 -22 -22 -23 -23 -23 -23 -24 -24 -24 -24 -24 -24 -25 -25 -25 -25 -25 -26 -26 -26 -27 -29 -30 -30 -30 -31 -31 -31 -31
-17 -17 -17 -17 -17 -18 -18 -19 -19 -20 -21 -22 -22 -22 -22 -22 -23 -23 -24 -24 -24 -24 -24 -25 -25 -25 -25 -25 -25 -25 -25 -26 -26 -27 -29 -30 -30 -31 -31 -31 -32 -32 -32 -32
-18 -18 -18 -18 -18 -19 -19 -20 -21 -22 -22 -22 -23 -23 -23 -23 -23 -24 -24 -24 -24 -25 -25 -25 -25 -25 -25 -25 -25 -26 -26 -27 -28 -29 -30 -31 -32 -32 -32 -33 -33 -33 -33 -33
-18 -18 -19 -19 -20 -20 -21 -22 -22 -22 -23 -23 -23 -23 -23 -24 -24 -24 -25 -25 -25 -25 -25 -25 -25 -25 -25 -25 -26 -26 -28 -29 -29 -30 -31 -32 -33 -33 -34 -34 -34 -34 -34 -34
-19 -19 -20 -21 -21 -22 -22 -23 -23 -23 -23 -23 -23 -24 -24 -25 -25 -25 -25 -25 -25 -25 -25 -25 -25 -25 -26 -26 -27 -29 -30 -30 -31 -32 -33 -33 -34 -35 -35 -35 -35 -34 -34 -33
-20 -21 -21 -22 -23 -23 -23 -23 -24 -24 -24 -24 -24 -24 -25 -26 -25 -25 -26 -26 -26 -26 -26 -26 -26 -26 -27 -28 -29 -31 -31 -31 -32 -33 -33 -34 -34 -35 -35 -35 -34 -34 -34 -33
-22 -22 -23 -23 -24 -24 -24 -24 -24 -24 -24 -25 -25 -25 -26 -26 -26 -26 -26 -26 -26 -26 -26 -26 -26 -27 -28 -29 -30 -31 -31 -31 -31 -32 -32 -33 -33 -33 -33 -33 -33 -33 -33 -32
-23 -24 -24 -24 -24 -24 -24 -25 -25 -25 -25 -25 -25 -26 -26 -27 -26 -26 -26 -26 -26 -26 -27 -27 -27 -28 -30 -30 -31 -31 -31 -31 -31 -31 -32 -32 -32 -32 -32 -32 -32 -32 -32 -31
-24 -24 -24 -24 -24 -25 -25 -25 -25 -25 -25 -26 -26 -26 -26 -27 -27 -27 -26 -26 -26 -27 -27 -27 -29 -30 -30 -31 -31 -31 -31 -31 -31 -31 -31 -31 -32 -32 -32 -32 -32 -31 -31 -31
-25 -25 -25 -25 -26 -26 -26 -26 -26 -26 -26 -26 -26 -26 -26 -27 -27 -27 -27 -27 -27 -27 -28 -29 -30 -30 -30 -31 -31 -31 -31 -31 -31 -31 -31 -31 -31 -31 -31 -31 -31 -31 -31 -31
-26 -26 -26 -26 -26 -26 -26 -26 -26 -27 -26 -26 -27 -26 -27 -27 -27 -27 -27 -27 -28 -28 -29 -30 -31 -31 -31 -31 -31 -31 -31 -31 -31 -31 -31 -31 -31 -31 -31 -31 -31 -31 -31 -32
-26 -26 -26 -27 -27 -27 -27 -27 -27 -27 -27 -27 -27 -27 -27 -28 -28 -28 -28 -29 -29 -30 -30 -31 -31 -31 -31 -31 -31 -31 -31 -31 -31 -30 -30 -30 -31 -31 -31 -31 -32 -32 -32 -32
Height
5710 5713 5716 5719 5723 5727 5731 5736 5740 5744 5747 5750 5751 5752 5753 5753 5752 5750 5748 5746 5743 5739 5735 5730 5724 5717 5710 5703 5696 5689 5682 5675 5669 5662 5656 5650 5645 5639 5633 5628 5622 5617 5611 5606
5715 5717 5720 5722 5725 5728 5732 5735 5739 5741 5743 5745 5746 5746 5746 5745 5744 5742 5740 5737 5733 5728 5723 5718 5711 5704 5695 5687 5679 5672 5665 5659 5652 5645 5639 5633 5628 5622 5616 5611 5605 5599 5593 5589
5718 5720 5722 5725 5726 5728 5731 5734 5737 5739 5740 5740 5740 5740 5740 5739 5737 5734 5730 5726 5720 5715 5709 5702 5695 5686 5678 5670 5662 5654 5648 5641 5635 5629 5623 5617 5611 5605 5599 5593 5587 5581 5576 5571
5718 5720 5722 5723 5725 5727 5729 5731 5733 5735 5735 5735 5735 5735 5733 5730 5727 5723 5718 5713 5707 5701 5695 5687 5679 5670 5661 5652 5644 5637 5630 5624 5618 5612 5605 5599 5593 5587 5582 5576 5572 5567 5561 5555
5720 5721 5723 5723 5725 5727 5728 5729 5729 5730 5730 5730 5728 5725 5722 5719 5715 5710 5705 5700 5694 5687 5678 5669 5661 5652 5643 5635 5628 5620 5614 5608 5602 5596 5589 5584 5577 5572 5567 5563 5558 5552 5546 5540
5719 5721 5722 5723 5724 5725 5725 5725 5725 5725 5724 5722 5720 5717 5712 5707 5701 5696 5690 5684 5678 5670 5662 5653 5645 5636 5628 5621 5614 5607 5600 5595 5588 5582 5576 5570 5564 5560 5555 5549 5544 5538 5532 5525
5718 5718 5719 5719 5720 5720 5721 5723 5719 5718 5716 5713 5710 5706 5701 5696 5689 5683 5677 5669 5662 5655 5647 5639 5630 5622 5614 5607 5600 5594 5588 5581 5575 5569 5564 5558 5553 5547 5542 5537 5531 5525 5519 5512
5716 5716 5717 5716 5716 5715 5714 5712 5710 5708 5705 5702 5697 5692 5687 5683 5676 5670 5663 5656 5649 5641 5633 5624 5614 5607 5600 5593 5587 5581 5576 5570 5564 5558 5552 5547 5542 5537 5530 5523 5517 5511 5504 5497
5710 5710 5709 5709 5708 5706 5704 5703 5701 5697 5694 5690 5686 5681 5676 5670 5663 5657 5650 5643 5635 5626 5617 5608 5600 5593 5587 5581 5575 5570 5565 5559 5553 5547 5540 5534 5529 5523 5516 5508 5500 5494 5486 5479
5703 5703 5700 5699 5697 5695 5693 5691 5688 5685 5681 5677 5673 5668 5662 5656 5650 5644 5636 5628 5620 5611 5602 5594 5587 5581 5576 5571 5566 5561 5555 5548 5541 5535 5528 5521 5514 5505 5498 5490 5482 5474 5466 5457
5694 5693 5691 5689 5686 5685 5682 5680 5677 5674 5670 5665 5660 5655 5649 5643 5636 5629 5620 5612 5604 5597 5589 5582 5576 5570 5566 5561 5555 5549 5543 5536 5529 5522 5515 5508 5499 5489 5481 5472 5461 5452 5443 5432
5683 5683 5681 5679 5677 5674 5671 5669 5666 5662 5657 5652 5647 5641 5634 5627 5620 5612 5604 5597 5591 5584 5577 5571 5566 5560 5554 5549 5542 5535 5529 5521 5514 5505 5497 5488 5479 5473 5462 5450 5440 5427 5415 5403
5673 5671 5669 5667 5664 5663 5660 5656 5652 5647 5642 5637 5632 5626 5619 5612 5605 5597 5591 5585 5578 5571 5565 5560 5554 5548 5541 5535 5527 5519 5512 5505 5496 5486 5477 5467 5458 5448 5439 5433 5418 5406 5394 5384
5660 5659 5658 5655 5652 5650 5646 5643 5639 5634 5629 5623 5618 5611 5605 5598 5592 5586 5580 5574 5567 5560 5553 5547 5541 5535 5527 5520 5512 5504 5495 5485 5475 5466 5455 5444 5434 5423 5412 5401 5395 5393 5382 5369
5648 5646 5645 5642 5639 5635 5631 5627 5623 5618 5613 5608 5603 5597 5592 5586 5580 5574 5568 5562 5555 5548 5540 5534 5528 5521 5512 5504 5496 5487 5477 5467 5456 5445 5434 5421 5409 5399 5389 5380 5373 5368 5364 5357
5635 5633 5631 5627 5624 5621 5617 5613 5608 5603 5598 5593 5588 5583 5577 5572 5566 5560 5555 5549 5542 5534 5527 5521 5514 5506 5499 5489 5480 5470 5458 5445 5432 5420 5409 5396 5385 5376 5368 5361 5355 5350 5345 5338
5622 5620 5616 5613 5609 5606 5602 5597 5592 5588 5583 5578 5574 5569 5564 5558 5553 5546 5540 5534 5526 5519 5513 5507 5500 5491 5482 5472 5461 5450 5438 5426 5411 5396 5383 5373 5364 5356 5349 5343 5338 5333 5327 5320
5606 5604 5601 5598 5595 5591 5586 5582 5578 5573 5569 5565 5560 5555 5550 5545 5540 5533 5527 5519 5512 5505 5498 5491 5483 5474 5464 5453 5442 5429 5415 5401 5387 5374 5362 5351 5343 5336 5330 5325 5320 5315 5311 5306
5590 5587 5585 5583 5579 5575 5572 5568 5564 5560 5556 5551 5547 5542 5537 5532 5526 5520 5513 5505 5498 5494 5486 5477 5469 5459 5448 5436 5423 5409 5394 5380 5365 5350 5338 5329 5323 5317 5313 5308 5305 5301 5296 5292
5573 5570 5568 5566 5563 5560 5557 5554 5551 5547 5542 5538 5534 5529 5523 5516 5511 5505 5499 5492 5484 5480 5472 5463 5454 5443 5432 5419 5405 5391 5377 5362 5348 5334 5323 5315 5309 5306 5302 5298 5293 5288 5284 5281
5556 5554 5553 5550 5547 5545 5543 5540 5536 5533 5529 5525 5520 5514 5509 5502 5497 5492 5485 5480 5471 5465 5456 5447 5438 5428 5416 5403 5392 5381 5370 5356 5342 5329 5319 5312 5307 5302 5297 5293 5289 5285 5282 5280
5541 5540 5537 5536 5534 5532 5529 5526 5523 5519 5514 5510 5505 5500 5494 5488 5483 5477 5470 5466 5459 5451 5442 5432 5422 5411 5401 5391 5382 5374 5365 5355 5344 5334 5325 5317 5310 5304 5299 5294 5289 5285 5282 5279
5528 5526 5524 5522 5520 5518 5515 5512 5508 5504 5500 5495 5490 5486 5481 5476 5470 5466 5459 5449 5442 5435 5427 5416 5407 5397 5389 5381 5374 5367 5360 5351 5342 5334 5326 5319 5312 5305 5300 5295 5290 5286 5282 5279
5514 5512 5510 5508 5505 5503 5501 5499 5495 5491 5485 5481 5478 5473 5467 5462 5455 5449 5443 5436 5427 5420 5410 5401 5393 5385 5378 5372 5367 5361 5353 5346 5338 5331 5325 5318 5311 5305 5300 5295 5290 5286 5282 5279
5500 5498 5497 5495 5492 5489 5486 5483 5480 5477 5472 5467 5463 5457 5452 5447 5442 5434 5426 5419 5411 5403 5395 5387 5380 5374 5368 5363 5359 5353 5347 5340 5334 5328 5322 5316 5310 5304 5299 5294 5290 5286 5283 5281
5486 5485 5484 5482 5478 5475 5473 5470 5466 5463 5459 5454 5447 5443 5437 5431 5426 5419 5412 5404 5396 5388 5381 5374 5368 5363 5358 5355 5351 5346 5341 5335 5329 5323 5318 5313 5307 5302 5297 5293 5289 5286 5283 5281
5472 5470 5470 5467 5465 5463 5459 5455 5452 5449 5445 5441 5435 5427 5423 5417 5410 5403 5397 5389 5381 5374 5368 5362 5357 5353 5349 5347 5343 5339 5334 5329 5324 5319 5314 5309 5304 5299 5295 5291 5288 5286 5284 5282
Wind_Speed
13 17 21 22 20 21 21 21 20 20 18 15 19 20 22 22 24 27 29 31 35 39 44 47 51 55 58 61 62 63 65 66 66 65 63 63 63 62 62 61 60 58 58 60
14 13 13 13 12 11 10 8 9 10 11 13 13 15 17 20 24 29 32 36 41 45 47 53 58 60 62 64 64 65 66 66 66 65 65 62 60 59 58 58 59 59 61 62
10 9 8 8 7 6 5 4 4 5 7 9 11 14 19 24 28 33 39 43 47 52 55 59 62 65 66 66 64 61 61 62 62 62 62 63 62 61 61 60 60 61 62 62
9 9 8 7 6 5 3 2 1 3 7 11 15 18 23 28 32 36 41 48 52 53 57 61 64 67 69 68 58 55 57 59 60 61 60 60 59 59 59 61 63 62 61 60
9 6 5 4 3 2 1 3 4 7 11 15 19 24 29 34 38 41 47 52 56 60 63 67 68 69 69 64 57 54 54 54 55 54 53 53 52 53 55 55 55 55 56 58
7 5 2 3 2 2 4 8 10 15 18 22 27 31 36 39 44 49 53 58 63 68 71 73 75 75 71 61 55 53 52 53 52 50 47 46 47 48 50 51 52 53 53 53
2 1 4 4 5 10 13 14 19 23 26 31 34 39 42 45 49 54 59 64 68 71 73 75 76 74 67 60 55 50 48 48 47 47 46 45 45 46 48 49 51 52 55 57
5 7 8 10 13 18 21 25 28 31 34 38 41 44 47 50 54 58 65 69 71 73 74 74 70 65 61 57 53 48 45 43 41 42 44 45 48 50 53 55 57 59 62 63
15 13 16 19 23 26 29 32 33 37 41 42 45 48 51 56 59 64 71 73 71 70 69 67 64 60 55 51 46 42 41 42 43 44 46 47 50 54 57 62 64 65 67 68
21 20 25 27 30 33 35 38 40 43 45 47 50 53 56 60 64 69 71 67 66 65 62 59 55 51 48 46 44 42 43 45 47 49 51 53 58 62 64 66 70 72 75 79
26 26 28 30 34 36 38 40 43 45 47 50 52 55 58 61 64 65 62 61 61 58 55 50 46 43 45 47 47 47 47 49 51 54 57 60 64 68 72 75 80 82 84 86
34 30 31 34 36 38 41 42 42 46 46 49 53 54 57 57 58 58 57 56 55 52 49 43 44 47 50 52 52 51 52 56 60 64 67 70 73 75 80 85 86 83 80 79
33 34 36 37 39 40 42 43 46 47 49 53 53 53 54 53 54 54 53 53 50 47 46 48 50 53 55 56 58 60 63 66 69 72 75 78 80 85 89 86 78 72 67 63
34 37 38 40 42 42 43 45 46 49 51 52 51 52 52 52 53 52 53 53 51 50 52 54 56 58 60 61 62 66 70 74 77 80 82 85 90 93 89 81 70 57 53 56
40 41 40 40 43 45 46 47 49 50 50 50 50 50 50 51 52 53 55 53 53 55 57 57 58 60 62 65 68 72 76 78 81 84 88 92 92 83 72 65 61 56 52 53
42 42 44 46 46 47 48 48 49 50 50 50 49 49 49 51 54 56 56 56 57 59 60 60 61 63 66 69 73 75 78 83 87 90 92 85 75 68 64 59 54 54 54 56
44 46 48 49 49 48 49 50 51 51 50 50 50 50 51 55 57 56 57 59 61 62 61 61 64 67 69 73 76 78 83 88 92 88 79 73 69 64 59 55 55 56 56 52
46 48 49 48 47 49 51 51 52 51 50 50 51 52 54 55 57 59 60 60 59 57 61 64 67 69 72 76 80 85 89 86 81 78 76 71 64 58 55 55 54 54 49 42
52 51 49 48 48 49 50 50 50 50 52 53 54 54 53 57 60 61 56 54 56 59 61 65 69 72 75 80 85 85 80 78 75 71 65 59 54 51 49 46 43 45 44 40
51 50 49 47 47 47 47 48 48 48 50 52 54 56 60 60 59 54 55 55 58 59 63 67 71 75 78 81 75 70 65 63 60 54 47 42 36 31 32 35 37 34 28 23
49 49 48 47 46 45 45 45 47 48 51 54 58 63 58 54 53 54 55 56 60 65 68 71 73 76 76 68 62 48 49 50 47 41 35 30 28 26 25 23 22 19 16 13
49 48 49 48 48 49 49 50 50 52 53 59 59 58 53 53 54 56 58 59 63 66 69 71 75 72 60 56 41 42 43 44 43 40 36 31 28 26 25 24 22 20 19 18
47 47 47 48 48 48 47 49 52 53 57 58 56 52 55 55 57 59 62 65 65 67 69 71 68 59 52 44 36 37 38 40 39 37 34 31 30 28 26 24 23 21 19 16
48 48 49 48 46 43 45 52 54 55 54 49 50 51 55 58 61 62 61 64 66 68 69 65 55 48 46 34 33 35 37 38 37 33 32 32 30 28 27 24 22 19 14 10
53 48 44 44 46 48 50 54 54 49 46 46 51 58 58 56 55 58 62 63 63 65 61 54 49 43 38 30 31 35 37 37 34 31 31 31 29 26 25 23 19 14 10 8
38 40 43 48 51 51 50 52 54 52 52 55 60 59 56 55 57 59 61 61 61 59 53 50 43 38 33 28 30 33 36 34 32 31 30 29 28 26 23 21 15 11 7 11
49 48 51 47 49 47 46 47 50 54 56 58 56 54 54 57 57 57 57 55 54 52 50 42 35 35 28 25 29 33 34 33 31 30 29 28 28 26 21 16 11 7 9 7
Wind_Direction
155 165 170 172 168 166 168 174 187 197 213 234 247 263 276 286 293 299 302 301 304 307 309 308 308 306 305 302 299 297 297 296 296 295 294 294 294 294 294 294 294 294 293 290
116 123 133 138 142 146 157 183 206 232 255 271 287 294 300 303 308 312 315 314 312 312 312 312 311 309 306 304 301 297 295 294 294 294 294 294 293 293 292 291 290 289 288 290
119 128 135 141 147 154 171 211 244 270 285 292 296 303 308 314 316 318 317 316 315 315 314 313 313 312 308 306 303 299 295 292 292 292 292 292 291 290 289 288 286 285 285 286
129 130 128 128 136 142 151 179 255 300 295 298 303 308 315 317 319 321 324 323 320 318 317 315 313 310 310 309 305 300 296 294 293 292 292 292 290 288 287 288 289 290 291 292
105 102 98 99 98 95 358 298 284 305 306 310 312 311 313 315 317 318 319 319 320 319 317 317 314 311 309 309 306 300 297 295 295 295 295 295 293 292 295 295 294 293 292 292
113 111 116 63 77 72 306 302 304 310 310 311 311 311 313 318 321 322 321 321 322 322 320 318 315 310 308 310 306 302 300 298 298 298 298 298 297 295 294 292 294 296 296 296
154 360 317 319 311 311 304 300 308 311 314 314 316 317 319 321 323 324 324 322 321 318 317 314 311 308 311 311 308 305 302 300 300 301 302 303 301 300 299 299 299 300 299 298
269 290 289 294 297 302 305 307 309 310 312 313 315 318 319 322 323 323 322 320 317 316 313 309 308 310 310 308 306 305 304 303 304 304 304 305 306 305 305 304 303 301 300 299
295 301 299 302 302 301 301 303 306 309 313 314 315 315 316 319 321 320 319 317 313 309 308 308 310 310 309 308 307 307 307 308 309 309 309 309 309 307 305 302 300 299 297 296
287 294 296 299 298 299 303 305 308 311 310 311 312 313 316 319 319 318 315 310 307 306 308 310 310 309 308 307 307 307 306 307 306 305 305 306 309 309 308 306 304 302 300 299
285 291 295 295 295 301 303 305 308 308 308 310 312 315 316 316 315 312 308 306 307 308 309 310 308 308 307 304 304 305 305 304 303 304 303 303 305 306 306 306 306 306 304 302
284 288 288 288 292 295 297 302 302 303 306 308 311 311 311 309 307 306 306 308 308 308 308 304 304 306 305 304 305 304 303 303 305 306 306 305 304 304 307 308 308 307 303 299
286 286 286 290 292 295 299 301 303 304 306 307 307 305 303 303 305 306 307 307 306 306 303 302 305 306 305 305 303 304 305 305 305 305 306 305 305 306 306 308 307 304 301 300
283 286 289 290 293 295 297 299 301 302 303 303 301 299 299 301 303 304 304 303 302 304 305 304 305 305 304 305 306 306 305 305 305 306 305 305 306 307 309 307 305 302 299 300
286 287 288 290 293 295 297 298 298 299 298 296 294 294 294 298 301 301 301 301 302 303 303 303 304 304 305 306 307 307 307 306 305 304 304 305 307 307 306 305 304 303 301 302
285 289 292 294 296 295 295 295 294 295 293 292 291 292 293 297 300 300 300 301 303 303 303 303 305 306 306 306 307 307 307 307 307 307 307 307 306 305 304 302 300 301 303 304
287 290 291 293 294 294 294 292 291 290 290 290 290 291 293 298 298 298 299 301 302 304 304 306 306 305 306 307 307 308 308 308 309 309 307 306 304 303 301 299 299 301 304 303
288 289 290 290 290 289 287 286 287 289 290 289 289 290 296 297 297 298 301 301 304 305 307 307 307 308 308 309 310 311 313 313 311 308 305 303 301 299 296 296 299 303 303 301
288 287 288 288 283 280 280 282 284 286 286 287 289 292 295 298 296 297 300 302 304 306 307 308 308 308 311 312 314 317 315 314 312 310 309 306 302 299 300 301 299 302 302 300
286 286 285 283 278 277 278 282 285 285 286 287 289 292 298 296 298 299 301 303 304 304 306 308 309 312 314 318 319 319 322 323 323 321 319 318 317 316 312 309 309 310 311 310
281 280 280 278 277 277 277 278 283 285 287 290 290 292 295 298 299 301 301 303 303 306 309 310 312 314 320 321 322 328 338 345 350 351 351 349 346 341 338 338 340 345 346 344
281 281 279 278 277 278 279 284 285 285 288 291 291 292 293 295 298 298 301 304 305 306 308 311 315 321 319 321 321 327 333 338 344 350 355 357 357 354 350 348 347 347 345 341
279 280 280 281 282 283 284 283 283 287 290 290 292 295 296 300 298 300 304 303 304 306 311 317 320 318 318 321 317 327 333 337 340 343 346 348 349 348 347 346 345 344 341 340
280 282 282 284 283 279 280 286 284 286 288 290 296 301 302 299 299 302 304 303 305 310 316 319 316 315 320 311 315 323 329 332 335 337 338 340 342 342 343 344 344 346 352 4
283 283 282 279 278 277 282 284 286 286 291 295 303 306 305 304 303 302 303 308 314 317 317 314 315 313 314 304 312 320 325 328 332 334 334 335 336 337 338 340 344 349 354 13
264 272 285 286 282 282 284 288 283 283 287 295 301 303 304 303 301 304 309 314 315 314 313 315 313 311 308 299 310 317 321 324 326 328 330 331 333 334 334 336 338 343 357 352
265 276 287 280 280 278 285 285 286 286 287 293 300 301 300 301 307 311 313 311 311 314 316 314 310 311 304 300 311 316 318 319 321 323 327 330 330 329 329 334 342 355 349 13